星链-38040(STARLINK-38040)

导读

STARLINK-38040(NORAD编号69717)是SpaceX星链(Starlink)低轨卫星互联网星座的组网卫星,搭载猎鹰9号火箭发射入轨,运行于近地轨道,采用星链v2 mini卫星平台,主要面向全球提供高速宽带互联网接入服务。该卫星所属的星链星座截至2026年在轨运营卫星超9500颗,已覆盖全球多数区域,用户规模突破900万,是当前全球规模最大的低轨通信卫星星座组网单元之一。卫星入轨后按规划完成轨道部署与测试,正常在轨运行,支撑星座网络容量扩充与服务覆盖优化。

Basic Information
目录编号:
69717
目录名称:
STARLINK-38040
国际标识:
2026-147P
轨道中心:
EARTH
卫星名称:
星链-38040
卫星全名:
星链-38040(STARLINK-38040)
卫星状态:
在轨 (已飞行69 天)
发射日期:
2026-06-28 UTC
国别 :
美国 (US)
星等 :
--
Orbit Information
数据来源 国际轨道数据 AOE轨道数据
星历时间 2026-09-04T21:45:35+0800
18小时前
查看轨道信息
2026-09-03T22:00:00+0800
1天前
查看轨道信息
半长轴 6843.622km 6843.661km
偏心率 0.0000485 0.0001115
轨道倾角 97.284° 97.287°
近地点辐角 196.403° 96.107°
升交点赤经 284.174° 283.196°
平近点角 163.720° 202.421°
近地点 465.153km 464.76km
远地点 465.817km 466.288km
周期 93.905分钟 93.906分钟
每日圈数 15.334646 15.334517
Detailed Information
固有亮度:
5
最大亮度:
2.5
卫星平台:
Starlink V1.0
覆盖范围:
全球
运营商:
太空探索技术公司
运营商所在国:
美国
制造商(研发单位):
太空探索技术公司
制造商所在国:
美国
使用方式:
暂无
Satellite Introduction
Starlink 计划是 SpaceX 推出的全球卫星互联网项目,通过发射低轨道卫星,为全球尤其是偏远地区提供高速、低延迟的互联网服务。自 2019 年起,Starlink 已部署数千颗卫星,旨在缩小全球数字鸿沟,推动互联网普及。该项目还为军事、航空等行业提供通信支持,带来广泛经济效益。
2D Orbit Map
3D Orbit Map
Orbit Altitude Analysis Chart
Orbit Inclination Analysis Chart
Orbit Comprehensive Analysis Chart
View Comprehensive Chart
Conjunction Data List
Event ID Objects TCA Miss Dist (km) Collision Risk Probability Collision Risk Index (CRI) Action
CDM_260905-114806-475606-971721
2026-09-05T
11:48:56+0000
2.444 km
极远距离
1.81125E-6 低风险 0.4
CDM_260905-122706-580306-971721
2026-09-05T
12:27:04+0000
2.541 km
极远距离
1.729716E-6 低风险 0.4
CDM_260905-140106-580306-971721
2026-09-05T
14:01:00+0000
2.587 km
极远距离
1.676775E-6 低风险 0.39
CDM_260905-161305-084006-971722
2026-09-05T
16:13:51+0000
2.868 km
极远距离
1.396416E-6 低风险 0.38
CDM_260905-152204-865506-971722
2026-09-05T
15:22:48+0000
2.988 km
极远距离
1.064063E-6 低风险 0.36